{"data":{"norad_id":52457,"intl_designator":"2022-049G","name":"STARLINK-3899","alt_names":[],"object_type":"PAYLOAD","status":"ACTIVE","operator":null,"country":"US","launch_date":"2022-05-06","launch_site_code":"AFETR","launch_vehicle":null,"mission":null,"orbit_class":"UNKNOWN","rcs_meters":null,"size_class":null,"mass_kg":null,"dimensions":null,"purposes":["comms"],"wikipedia_slug":null,"has_3d_model":false,"image_url":null,"decayed_at":null,"tle_current":{"epoch":"2026-05-25T04:49:09.560640Z","epoch_age_seconds":51638,"freshness":"FRESH","line1":"1 52457U 22049G   26145.20080510 -.00002837  00000+0 -16019-3 0  9995","line2":"2 52457  53.2123  85.6373 0001352  94.9943 265.1203 15.08852516223661","mean_motion":15.08852516,"eccentricity":0.0001352,"inclination_deg":53.2123,"raan_deg":85.6373,"arg_perigee_deg":94.9943,"mean_anomaly_deg":265.1203,"bstar":-0.00016019,"rev_number":22366,"period_min":95.436763018925,"perigee_km":538.7698405673,"apogee_km":540.64042508001,"semimajor_km":6917.8421328237,"source":"CELESTRAK","updated_at":"2026-05-25T13:38:17.125212Z"}}}